Weather in Svetlogor'ye

Russia / Primorsky Krai     46°51′41″N   134°26′39″E
temp.,
°C
wind,
m/s
gust,
m/s
humid.,
%
clouds,
%
prec.,
mm/h
press.,
hPa
HPBL,
m
13 june, sun
sun1301:00+15ese11941 0.1 100610
04:00+13sse11974 0.4 100711
07:00+15se119721 0.2 100894
10:00+22wsw23670 0.2 1008719
13:00+27wnw254137 0.0 10072376
16:00+27nw354225 0.0 10062127
19:00+23n46594 0.0 1007666
22:00+16ne22895 0.0 100816
14 june, mon
mon1401:00+14nne11900 0.0 100915
04:00+13ne11920 0.0 101016
07:00+15ene1377100 0.0 1010153
10:00+22ene34395 0.0 1010813
13:00+26ene23333 0.0 10091456
16:00+27ne23325 0.0 10072165
19:00+23ne2555100 0.0 1006212
22:00+15nne21597 0.0 100818
15 june, tue
tue1501:00+12ne22650 0.0 100826
04:00+11e21820 0.0 100817
07:00+13se23720 0.0 1009169
10:00+20s34631 0.0 1009732
13:00+24ssw22500 0.0 10081122
16:00+26sw22480 0.0 10071335
19:00+24sw23665 0.0 1006243
22:00+17wsw11945 0.0 100719
16 june, wed
wed1601:00+15ssw23972 0.0 100865
04:00+12s24970 0.0 1009116
07:00+14s26844 0.0 1010259
10:00+19ssw356766 0.0 1010596
13:00+24ssw33570 0.0 1008980
16:00+27ssw23510 0.0 10061339
19:00+24ssw23670 0.0 1006341
22:00+18w11930 0.0 100611
17 june, thu
thu1701:00+16sse11950 0.0 100611
04:00+14s22960 0.0 100633
07:00+15s25790 0.0 1006165
10:00+22s24520 0.0 1005544
13:00+26s33490 0.0 1003995
16:00+28sse234457 0.0 10001601
19:00+22ene127769 0.4 100083
22:00+17sse12940 0.4 100117